STARLINK-3144 (49412 NORAD) Tracking and Keplerian Element Data

This shows tracking and keplerian element data for the satellite.

Feedback or suggestion? Click here.




ElementValue
Catalog49412
NameSTARLINK-3144
Epoch Orbit1119
Epoch Day15.91668981
Epoch Year2022
RAAN185.3645
Inclination53.2174
Eccentricity0.0001447
Argument of Perigee66.0706
Mean Anonmoly147.9935
Mean Motion15.26170711
Decay Rate-0.00651831
L11 49412U 21104E 22015.91668981 -.00651831 00000+0 -26797-1 0 9993
L22 49412 53.2174 185.3645 0001447 66.0706 147.9935 15.26170711 11198

Live tracking and technical data element details for STARLINK-3144 (NORAD 49412). STARLINK-3144 can be tracked NOW for your location showing map with azimuth and elevation plus other details from your city location.

Track the satellite on the map from your city or location and see movement details for azimuth, elevation, latitude, longitude, range, height, and movement on the map or in text.







IsCatalogInMostPopularTable: catalog: 49412, numindb: 5
Update: records affected: 1



GetName: 49412 STARLINK-3144

Hit Count: updated at: Thu, 20 Jan 2022 17:02:10 GMT